owner,sensor,date,latitude,longitude,vertical_datum,wind_speed,wind_to_direction,wind_speed_of_gust,qcFlag 
TABS,ioos:station:wmo:42043:1,2009-10-01T00:00:00Z,28.9818,-94.9186,4.0,4.158966218,133.6363913,5.48,'11111222,11111222,11111222' 
TABS,ioos:station:wmo:42043:1,2009-10-01T00:30:00Z,28.9818,-94.9186,4.0,5.1374118,137.2089704,6.2,'11111222,11111222,11111222' 
TABS,ioos:station:wmo:42043:1,2009-10-01T01:00:00Z,28.9818,-94.9186,4.0,5.193418912,137.0290135,6.42,'11111222,11111222,11111222' 
TABS,ioos:station:wmo:42043:1,2009-10-01T01:30:00Z,28.9818,-94.9186,4.0,5.374476719,134.2464691,6.8,'11111222,11111222,11111222' 
TABS,ioos:station:wmo:42043:1,2009-10-01T02:00:00Z,28.9818,-94.9186,4.0,5.57108607,128.0015971,6.74,'11111222,11111222,11111222' 
TABS,ioos:station:wmo:42043:1,2009-10-01T02:30:00Z,28.9818,-94.9186,4.0,5.771100415,133.8770156,7.27,'11111222,11111222,11111222' 
TABS,ioos:station:wmo:42043:1,2009-10-01T03:00:00Z,28.9818,-94.9186,4.0,6.331168928,130.8372019,7.94,'11111222,11111222,11111222' 
TABS,ioos:station:wmo:42043:1,2009-10-01T03:30:00Z,28.9818,-94.9186,4.0,7.136560796,133.6944964,8.53,'11111222,11111222,11111222' 
TABS,ioos:station:wmo:42043:1,2009-10-01T04:00:00Z,28.9818,-94.9186,4.0,7.008716002,136.0986849,8.61,'11111222,11111222,11111222' 
TABS,ioos:station:wmo:42043:1,2009-10-01T04:30:00Z,28.9818,-94.9186,4.0,6.875536343,146.1484353,9.02,'11111222,11111222,11111222' 
TABS,ioos:station:wmo:42043:1,2009-10-01T05:00:00Z,28.9818,-94.9186,4.0,6.957010852,145.3051381,8.45,'11111222,11111222,11111222' 
TABS,ioos:station:wmo:42043:1,2009-10-01T05:30:00Z,28.9818,-94.9186,4.0,6.44287203,146.1375707,8.31,'11111222,11111222,11111222' 
TABS,ioos:station:wmo:42043:1,2009-10-01T06:00:00Z,28.9818,-94.9186,4.0,6.60654978,146.0456341,8.41,'11111222,11111222,11111222' 
TABS,ioos:station:wmo:42043:1,2009-10-01T06:30:00Z,28.9818,-94.9186,4.0,6.870647713,149.6658092,8.89,'11111222,11111222,11111222' 
TABS,ioos:station:wmo:42043:1,2009-10-01T07:00:00Z,28.9818,-94.9186,4.0,6.625232071,149.5259673,8.65,'11111222,11111222,11111222' 
TABS,ioos:station:wmo:42043:1,2009-10-01T07:30:00Z,28.9818,-94.9186,4.0,6.326784333,158.5856379,8.23,'11111222,11111222,11111222' 
TABS,ioos:station:wmo:42043:1,2009-10-01T08:00:00Z,28.9818,-94.9186,4.0,6.328427925,159.5607754,8.14,'11111222,11111222,11111222' 
TABS,ioos:station:wmo:42043:1,2009-10-01T08:30:00Z,28.9818,-94.9186,4.0,6.663159911,165.1297574,8.45,'11111222,11111222,11111222' 
TABS,ioos:station:wmo:42043:1,2009-10-01T09:00:00Z,28.9818,-94.9186,4.0,6.757765903,157.6477979,8.54,'11111222,11111222,11111222' 
TABS,ioos:station:wmo:42043:1,2009-10-01T09:30:00Z,28.9818,-94.9186,4.0,7.015311825,160.4288405,8.9,'11111222,11111222,11111222' 
TABS,ioos:station:wmo:42043:1,2009-10-01T10:00:00Z,28.9818,-94.9186,4.0,7.531122094,179.0111409,11.99,'11111222,11111222,11111222' 
TABS,ioos:station:wmo:42043:1,2009-10-01T10:30:00Z,28.9818,-94.9186,4.0,6.280007962,179.9089754,8.19,'11111222,11111222,11111222' 
TABS,ioos:station:wmo:42043:1,2009-10-01T11:00:00Z,28.9818,-94.9186,4.0,7.185457536,177.7669715,9.14,'11111222,11111222,11111222' 
TABS,ioos:station:wmo:42043:1,2009-10-01T11:30:00Z,28.9818,-94.9186,4.0,7.257823365,188.3982372,9.06,'11111222,11111222,11111222' 
TABS,ioos:station:wmo:42043:1,2009-10-01T12:00:00Z,28.9818,-94.9186,4.0,7.249303415,187.9291004,8.94,'11111222,11111222,11111222' 
TABS,ioos:station:wmo:42043:1,2009-10-01T12:30:00Z,28.9818,-94.9186,4.0,7.044834987,188.9009376,8.68,'11111222,11111222,11111222' 
TABS,ioos:station:wmo:42043:1,2009-10-01T13:00:00Z,28.9818,-94.9186,4.0,6.430007776,179.9111038,8.1,'11111222,11111222,11111222' 
TABS,ioos:station:wmo:42043:1,2009-10-01T13:30:00Z,28.9818,-94.9186,4.0,6.409563168,176.8699729,8.18,'11111222,11111222,11111222' 
TABS,ioos:station:wmo:42043:1,2009-10-01T14:00:00Z,28.9818,-94.9186,4.0,6.191292272,170.7052631,7.72,'11111222,11111222,11111222' 
TABS,ioos:station:wmo:42043:1,2009-10-01T14:30:00Z,28.9818,-94.9186,4.0,6.768411926,170.2178263,8.83,'11111222,11111222,11111222' 
TABS,ioos:station:wmo:42043:1,2009-10-01T15:00:00Z,28.9818,-94.9186,4.0,6.994926733,175.1617548,8.84,'11111222,11111222,11111222' 
TABS,ioos:station:wmo:42043:1,2009-10-01T15:30:00Z,28.9818,-94.9186,4.0,6.901594019,172.339753,8.64,'11111222,11111222,11111222' 
TABS,ioos:station:wmo:42043:1,2009-10-01T16:00:00Z,28.9818,-94.9186,4.0,6.134313328,177.8514633,8.23,'11111222,11111222,11111222' 
TABS,ioos:station:wmo:42043:1,2009-10-01T16:30:00Z,28.9818,-94.9186,4.0,6.028474102,173.5235906,7.86,'11111222,11111222,11111222' 
TABS,ioos:station:wmo:42043:1,2009-10-01T17:00:00Z,28.9818,-94.9186,4.0,6.284751387,173.9721311,8.72,'11111222,11111222,11111222' 
TABS,ioos:station:wmo:42043:1,2009-10-01T17:30:00Z,28.9818,-94.9186,4.0,6.21206085,178.5243207,8.0,'11111222,11111222,11111222' 
TABS,ioos:station:wmo:42043:1,2009-10-01T18:00:00Z,28.9818,-94.9186,4.0,6.323827955,178.0065468,8.3,'11111222,11111222,11111222' 
TABS,ioos:station:wmo:42043:1,2009-10-01T18:30:00Z,28.9818,-94.9186,4.0,6.480123456,180.3538828,8.59,'11111222,11111222,11111222' 
TABS,ioos:station:wmo:42043:1,2009-10-01T19:00:00Z,28.9818,-94.9186,4.0,6.453417699,181.8649914,8.45,'11111222,11111222,11111222' 
TABS,ioos:station:wmo:42043:1,2009-10-01T19:30:00Z,28.9818,-94.9186,4.0,6.256268856,177.4350807,8.39,'11111222,11111222,11111222' 
TABS,ioos:station:wmo:42043:1,2009-10-01T20:00:00Z,28.9818,-94.9186,4.0,6.176487675,170.4006573,7.89,'11111222,11111222,11111222' 
TABS,ioos:station:wmo:42043:1,2009-10-01T20:30:00Z,28.9818,-94.9186,4.0,5.94697402,171.3932421,7.78,'11111222,11111222,11111222' 
TABS,ioos:station:wmo:42043:1,2009-10-01T21:00:00Z,28.9818,-94.9186,4.0,5.830969045,173.2042823,7.34,'11111222,11111222,11111222' 
TABS,ioos:station:wmo:42043:1,2009-10-01T21:30:00Z,28.9818,-94.9186,4.0,5.60650515,177.2398794,7.14,'11111222,11111222,11111222' 
TABS,ioos:station:wmo:42043:1,2009-10-01T22:00:00Z,28.9818,-94.9186,4.0,5.690008787,179.8995152,7.26,'11111222,11111222,11111222' 
TABS,ioos:station:wmo:42043:1,2009-10-01T22:30:00Z,28.9818,-94.9186,4.0,5.420590374,180.8458412,6.87,'11111222,11111222,11111222' 
TABS,ioos:station:wmo:42043:1,2009-10-01T23:00:00Z,28.9818,-94.9186,4.0,5.620008897,180.1021599,7.81,'11111222,11111222,11111222' 
TABS,ioos:station:wmo:42043:1,2009-10-01T23:30:00Z,28.9818,-94.9186,4.0,6.108387676,183.0031311,7.71,'11111222,11111222,11111222' 
TABS,ioos:station:wmo:42043:1,2009-10-02T00:00:00Z,28.9818,-94.9186,4.0,6.550618291,179.2129916,8.76,'11111222,11111222,11111222' 
TABS,ioos:station:wmo:42043:1,2009-10-02T00:30:00Z,28.9818,-94.9186,4.0,6.3903834,180.6278372,8.68,'11111222,11111222,11111222' 
TABS,ioos:station:wmo:42043:1,2009-10-02T01:00:00Z,28.9818,-94.9186,4.0,6.333064029,175.1088558,8.55,'11111222,11111222,11111222' 
TABS,ioos:station:wmo:42043:1,2009-10-02T01:30:00Z,28.9818,-94.9186,4.0,6.873718062,174.3228071,8.72,'11111222,11111222,11111222' 
TABS,ioos:station:wmo:42043:1,2009-10-02T02:00:00Z,28.9818,-94.9186,4.0,7.102591077,171.2540686,8.67,'11111222,11111222,11111222' 
TABS,ioos:station:wmo:42043:1,2009-10-02T02:30:00Z,28.9818,-94.9186,4.0,6.495606207,176.0277238,8.7,'11111222,11111222,11111222' 
TABS,ioos:station:wmo:42043:1,2009-10-02T03:00:00Z,28.9818,-94.9186,4.0,6.071457815,184.8186994,8.07,'11111222,11111222,11111222' 
TABS,ioos:station:wmo:42043:1,2009-10-02T03:30:00Z,28.9818,-94.9186,4.0,6.41377424,188.6988097,8.32,'11111222,11111222,11111222' 
TABS,ioos:station:wmo:42043:1,2009-10-02T04:00:00Z,28.9818,-94.9186,4.0,5.620720594,197.1778446,6.97,'11111222,11111222,11111222' 
TABS,ioos:station:wmo:42043:1,2009-10-02T04:30:00Z,28.9818,-94.9186,4.0,5.711829829,209.9316523,7.5,'11111222,11111222,11111222' 
TABS,ioos:station:wmo:42043:1,2009-10-02T05:00:00Z,28.9818,-94.9186,4.0,4.965903745,223.3681921,6.35,'11111222,11111222,11111222' 
TABS,ioos:station:wmo:42043:1,2009-10-02T05:30:00Z,28.9818,-94.9186,4.0,6.412316274,204.6067953,7.92,'11111222,11111222,11111222' 
TABS,ioos:station:wmo:42043:1,2009-10-02T06:00:00Z,28.9818,-94.9186,4.0,6.483532987,204.7074,8.33,'11111222,11111222,11111222' 
TABS,ioos:station:wmo:42043:1,2009-10-02T06:30:00Z,28.9818,-94.9186,4.0,6.22547187,212.3372113,7.98,'11111222,11111222,11111222' 
TABS,ioos:station:wmo:42043:1,2009-10-02T07:00:00Z,28.9818,-94.9186,4.0,5.754042058,217.0890865,7.33,'11111222,11111222,11111222' 
TABS,ioos:station:wmo:42043:1,2009-10-02T07:30:00Z,28.9818,-94.9186,4.0,5.329108743,214.9128774,7.14,'11111222,11111222,11111222' 
TABS,ioos:station:wmo:42043:1,2009-10-02T08:00:00Z,28.9818,-94.9186,4.0,5.463853951,213.4284443,7.0,'11111222,11111222,11111222' 
TABS,ioos:station:wmo:42043:1,2009-10-02T08:30:00Z,28.9818,-94.9186,4.0,4.737098268,234.3639834,6.04,'11111222,11111222,11111222' 
TABS,ioos:station:wmo:42043:1,2009-10-02T09:00:00Z,28.9818,-94.9186,4.0,4.185701853,230.7203162,5.75,'11111222,11111222,11111222' 
TABS,ioos:station:wmo:42043:1,2009-10-02T09:30:00Z,28.9818,-94.9186,4.0,3.937334123,230.7721171,4.98,'11111222,11111222,11111222' 
TABS,ioos:station:wmo:42043:1,2009-10-02T10:00:00Z,28.9818,-94.9186,4.0,3.570504166,232.1673272,4.97,'11111222,11111222,11111222' 
TABS,ioos:station:wmo:42043:1,2009-10-02T10:30:00Z,28.9818,-94.9186,4.0,3.937207132,262.1168791,5.14,'11111222,11111222,11111222' 
TABS,ioos:station:wmo:42043:1,2009-10-02T11:00:00Z,28.9818,-94.9186,4.0,12.02306117,341.7758611,15.36,'11111222,11111222,11111222' 
TABS,ioos:station:wmo:42043:1,2009-10-02T11:30:00Z,28.9818,-94.9186,4.0,5.391029586,7.8893889,7.21,'11111222,11111222,11111222' 
TABS,ioos:station:wmo:42043:1,2009-10-02T12:00:00Z,28.9818,-94.9186,4.0,7.220533221,19.4133693,8.87,'11111222,11111222,11111222' 
TABS,ioos:station:wmo:42043:1,2009-10-02T12:30:00Z,28.9818,-94.9186,4.0,6.554464128,16.94180691,7.81,'11111222,11111222,11111222' 
TABS,ioos:station:wmo:42043:1,2009-10-02T13:00:00Z,28.9818,-94.9186,4.0,8.557178273,12.0056662,10.43,'11111222,11111222,11111222' 
TABS,ioos:station:wmo:42043:1,2009-10-02T13:30:00Z,28.9818,-94.9186,4.0,8.405884843,9.103506263,10.61,'11111222,11111222,11111222' 
TABS,ioos:station:wmo:42043:1,2009-10-02T14:00:00Z,28.9818,-94.9186,4.0,8.523379611,35.25606581,10.43,'11111222,11111222,11111222' 
TABS,ioos:station:wmo:42043:1,2009-10-02T14:30:00Z,28.9818,-94.9186,4.0,8.916955759,45.49947505,11.17,'11111222,11111222,11111222' 
TABS,ioos:station:wmo:42043:1,2009-10-02T15:00:00Z,28.9818,-94.9186,4.0,8.403909804,55.91249816,10.14,'11111222,11111222,11111222' 
TABS,ioos:station:wmo:42043:1,2009-10-02T15:30:00Z,28.9818,-94.9186,4.0,7.880114212,57.0154144,9.7,'11111222,11111222,11111222' 
TABS,ioos:station:wmo:42043:1,2009-10-02T16:00:00Z,28.9818,-94.9186,4.0,7.520644919,59.64998668,9.78,'11111222,11111222,11111222' 
TABS,ioos:station:wmo:42043:1,2009-10-02T16:30:00Z,28.9818,-94.9186,4.0,7.014363834,69.73039238,8.39,'11111222,11111222,11111222' 
TABS,ioos:station:wmo:42043:1,2009-10-02T17:00:00Z,28.9818,-94.9186,4.0,7.411241461,64.33354268,8.86,'11111222,11111222,11111222' 
TABS,ioos:station:wmo:42043:1,2009-10-02T17:30:00Z,28.9818,-94.9186,4.0,6.929336188,70.70177362,8.87,'11111222,11111222,11111222' 
TABS,ioos:station:wmo:42043:1,2009-10-02T18:00:00Z,28.9818,-94.9186,4.0,6.51020737,70.06163396,7.99,'11111222,11111222,11111222' 
TABS,ioos:station:wmo:42043:1,2009-10-02T18:30:00Z,28.9818,-94.9186,4.0,5.915741712,65.42743177,7.27,'11111222,11111222,11111222' 
TABS,ioos:station:wmo:42043:1,2009-10-02T19:00:00Z,28.9818,-94.9186,4.0,5.483228976,56.45449556,6.62,'11111222,11111222,11111222' 
TABS,ioos:station:wmo:42043:1,2009-10-02T19:30:00Z,28.9818,-94.9186,4.0,5.269459175,51.78137199,6.66,'11111222,11111222,11111222' 
TABS,ioos:station:wmo:42043:1,2009-10-02T20:00:00Z,28.9818,-94.9186,4.0,5.560449622,43.25074236,7.3,'11111222,11111222,11111222' 
TABS,ioos:station:wmo:42043:1,2009-10-02T20:30:00Z,28.9818,-94.9186,4.0,5.54527727,50.19410107,6.63,'11111222,11111222,11111222' 
TABS,ioos:station:wmo:42043:1,2009-10-02T21:00:00Z,28.9818,-94.9186,4.0,5.605327823,51.88262904,6.81,'11111222,11111222,11111222' 
TABS,ioos:station:wmo:42043:1,2009-10-02T21:30:00Z,28.9818,-94.9186,4.0,5.755110772,55.97824572,6.75,'11111222,11111222,11111222' 
TABS,ioos:station:wmo:42043:1,2009-10-02T22:00:00Z,28.9818,-94.9186,4.0,5.906581075,46.57748876,7.15,'11111222,11111222,11111222' 
TABS,ioos:station:wmo:42043:1,2009-10-02T22:30:00Z,28.9818,-94.9186,4.0,5.834149467,44.23578764,7.45,'11111222,11111222,11111222' 
TABS,ioos:station:wmo:42043:1,2009-10-03T00:00:00Z,28.9818,-94.9186,4.0,5.969338322,46.22144415,7.38,'11111222,11111222,11111222' 
TABS,ioos:station:wmo:42043:1,2009-10-03T00:30:00Z,28.9818,-94.9186,4.0,6.126303943,54.70116786,7.93,'11111222,11111222,11111222' 
TABS,ioos:station:wmo:42043:1,2009-10-03T01:00:00Z,28.9818,-94.9186,4.0,6.249367968,57.14874751,7.24,'11111222,11111222,11111222' 
TABS,ioos:station:wmo:42043:1,2009-10-03T01:30:00Z,28.9818,-94.9186,4.0,6.13153325,62.93310922,7.53,'11111222,11111222,11111222' 
TABS,ioos:station:wmo:42043:1,2009-10-03T02:00:00Z,28.9818,-94.9186,4.0,5.852426847,61.63921346,6.96,'11111222,11111222,11111222' 
TABS,ioos:station:wmo:42043:1,2009-10-03T02:30:00Z,28.9818,-94.9186,4.0,4.951817848,62.19260258,6.05,'11111222,11111222,11111222' 
TABS,ioos:station:wmo:42043:1,2009-10-03T03:00:00Z,28.9818,-94.9186,4.0,5.042390306,61.70658535,6.14,'11111222,11111222,11111222' 
TABS,ioos:station:wmo:42043:1,2009-10-03T03:30:00Z,28.9818,-94.9186,4.0,5.107220379,57.55427545,6.29,'11111222,11111222,11111222' 
TABS,ioos:station:wmo:42043:1,2009-10-03T04:00:00Z,28.9818,-94.9186,4.0,5.277120427,63.43459003,6.49,'11111222,11111222,11111222' 
TABS,ioos:station:wmo:42043:1,2009-10-03T04:30:00Z,28.9818,-94.9186,4.0,5.080354318,63.33371751,6.15,'11111222,11111222,11111222' 
TABS,ioos:station:wmo:42043:1,2009-10-03T05:00:00Z,28.9818,-94.9186,4.0,5.292258497,57.03025228,6.33,'11111222,11111222,11111222' 
TABS,ioos:station:wmo:42043:1,2009-10-03T05:30:00Z,28.9818,-94.9186,4.0,5.092190099,53.62484732,6.07,'11111222,11111222,11111222' 
TABS,ioos:station:wmo:42043:1,2009-10-03T06:00:00Z,28.9818,-94.9186,4.0,5.556851627,54.96540598,6.72,'11111222,11111222,11111222' 
TABS,ioos:station:wmo:42043:1,2009-10-03T06:30:00Z,28.9818,-94.9186,4.0,5.507685539,61.7129809,6.78,'11111222,11111222,11111222' 
TABS,ioos:station:wmo:42043:1,2009-10-03T07:00:00Z,28.9818,-94.9186,4.0,5.352616183,59.45812373,6.38,'11111222,11111222,11111222' 
TABS,ioos:station:wmo:42043:1,2009-10-03T07:30:00Z,28.9818,-94.9186,4.0,5.472494861,61.51452296,6.46,'11111222,11111222,11111222' 
TABS,ioos:station:wmo:42043:1,2009-10-03T08:00:00Z,28.9818,-94.9186,4.0,5.841951729,64.66279243,7.15,'11111222,11111222,11111222' 
TABS,ioos:station:wmo:42043:1,2009-10-03T08:30:00Z,28.9818,-94.9186,4.0,6.000816611,61.42728689,7.43,'11111222,11111222,11111222' 
TABS,ioos:station:wmo:42043:1,2009-10-03T09:00:00Z,28.9818,-94.9186,4.0,6.003540622,60.78745944,7.72,'11111222,11111222,11111222' 
TABS,ioos:station:wmo:42043:1,2009-10-03T09:30:00Z,28.9818,-94.9186,4.0,6.514637365,67.52860413,8.31,'11111222,11111222,11111222' 
TABS,ioos:station:wmo:42043:1,2009-10-03T10:00:00Z,28.9818,-94.9186,4.0,6.492149105,66.19844093,7.89,'11111222,11111222,11111222' 
TABS,ioos:station:wmo:42043:1,2009-10-03T10:30:00Z,28.9818,-94.9186,4.0,6.732963686,60.84585841,8.62,'11111222,11111222,11111222' 
TABS,ioos:station:wmo:42043:1,2009-10-03T11:00:00Z,28.9818,-94.9186,4.0,6.909594778,63.80543045,8.49,'11111222,11111222,11111222' 
TABS,ioos:station:wmo:42043:1,2009-10-03T11:30:00Z,28.9818,-94.9186,4.0,6.959288757,69.29904226,8.21,'11111222,11111222,11111222' 
TABS,ioos:station:wmo:42043:1,2009-10-03T12:00:00Z,28.9818,-94.9186,4.0,6.922983461,74.15653401,8.62,'11111222,11111222,11111222' 
TABS,ioos:station:wmo:42043:1,2009-10-03T12:30:00Z,28.9818,-94.9186,4.0,6.891574566,67.56523058,8.24,'11111222,11111222,11111222' 
TABS,ioos:station:wmo:42043:1,2009-10-03T13:00:00Z,28.9818,-94.9186,4.0,6.992124141,64.86393526,8.53,'11111222,11111222,11111222' 
TABS,ioos:station:wmo:42043:1,2009-10-03T13:30:00Z,28.9818,-94.9186,4.0,7.073570527,61.73180541,9.05,'11111222,11111222,11111222' 
TABS,ioos:station:wmo:42043:1,2009-10-03T14:00:00Z,28.9818,-94.9186,4.0,8.123896848,71.63158145,10.21,'11111222,11111222,11111222' 
TABS,ioos:station:wmo:42043:1,2009-10-03T14:30:00Z,28.9818,-94.9186,4.0,6.332203408,77.41191514,7.96,'11111222,11111222,11111222' 
TABS,ioos:station:wmo:42043:1,2009-10-03T15:00:00Z,28.9818,-94.9186,4.0,7.32221278,88.59095364,9.48,'11111222,11111222,11111222' 
TABS,ioos:station:wmo:42043:1,2009-10-03T15:30:00Z,28.9818,-94.9186,4.0,6.600121211,90.347663,9.41,'11111222,11111222,11111222' 
TABS,ioos:station:wmo:42043:1,2009-10-03T16:00:00Z,28.9818,-94.9186,4.0,8.091582046,132.2454323,10.04,'11111222,11111222,11111222' 
TABS,ioos:station:wmo:42043:1,2009-10-03T16:30:00Z,28.9818,-94.9186,4.0,3.744008547,143.2528254,4.76,'11111222,11111222,11111222' 
TABS,ioos:station:wmo:42043:1,2009-10-03T17:00:00Z,28.9818,-94.9186,4.0,5.849649562,98.85081775,7.11,'11111222,11111222,11111222' 
TABS,ioos:station:wmo:42043:1,2009-10-03T17:30:00Z,28.9818,-94.9186,4.0,5.813776741,102.3154106,7.52,'11111222,11111222,11111222' 
TABS,ioos:station:wmo:42043:1,2009-10-03T18:00:00Z,28.9818,-94.9186,4.0,6.158912242,125.884078,7.98,'11111222,11111222,11111222' 
TABS,ioos:station:wmo:42043:1,2009-10-03T18:30:00Z,28.9818,-94.9186,4.0,3.889781485,140.0061365,5.45,'11111222,11111222,11111222' 
TABS,ioos:station:wmo:42043:1,2009-10-03T19:00:00Z,28.9818,-94.9186,4.0,3.950303786,130.5858887,5.15,'11111222,11111222,11111222' 
TABS,ioos:station:wmo:42043:1,2009-10-03T19:30:00Z,28.9818,-94.9186,4.0,4.770681293,103.9492463,6.44,'11111222,11111222,11111222' 
TABS,ioos:station:wmo:42043:1,2009-10-03T20:00:00Z,28.9818,-94.9186,4.0,5.508075889,110.1789979,7.04,'11111222,11111222,11111222' 
TABS,ioos:station:wmo:42043:1,2009-10-03T20:30:00Z,28.9818,-94.9186,4.0,4.404089009,95.9957937,5.77,'11111222,11111222,11111222' 
TABS,ioos:station:wmo:42043:1,2009-10-03T21:00:00Z,28.9818,-94.9186,4.0,5.508175742,86.87745592,7.14,'11111222,11111222,11111222' 
TABS,ioos:station:wmo:42043:1,2009-10-03T21:30:00Z,28.9818,-94.9186,4.0,6.9560046,128.8145047,8.47,'11111222,11111222,11111222' 
TABS,ioos:station:wmo:42043:1,2009-10-03T22:00:00Z,28.9818,-94.9186,4.0,5.128898517,125.7977402,7.06,'11111222,11111222,11111222' 
TABS,ioos:station:wmo:42043:1,2009-10-03T22:30:00Z,28.9818,-94.9186,4.0,4.169244536,122.6612573,5.16,'11111222,11111222,11111222' 
TABS,ioos:station:wmo:42043:1,2009-10-03T23:00:00Z,28.9818,-94.9186,4.0,5.656509524,137.7947564,7.26,'11111222,11111222,11111222' 
TABS,ioos:station:wmo:42043:1,2009-10-03T23:30:00Z,28.9818,-94.9186,4.0,5.584272558,122.4951449,6.75,'11111222,11111222,11111222' 
TABS,ioos:station:wmo:42043:1,2009-10-04T00:00:00Z,28.9818,-94.9186,4.0,5.494087731,129.9794811,6.92,'11111222,11111222,11111222' 
TABS,ioos:station:wmo:42043:1,2009-10-04T00:30:00Z,28.9818,-94.9186,4.0,5.9773991,124.4348124,8.66,'11111222,11111222,11111222' 
TABS,ioos:station:wmo:42043:1,2009-10-04T01:00:00Z,28.9818,-94.9186,4.0,5.483402229,144.4261759,7.63,'11111222,11111222,11111222' 
TABS,ioos:station:wmo:42043:1,2009-10-04T01:30:00Z,28.9818,-94.9186,4.0,5.544159089,155.3767033,6.99,'11111222,11111222,11111222' 
TABS,ioos:station:wmo:42043:1,2009-10-04T02:00:00Z,28.9818,-94.9186,4.0,6.114515516,165.5094624,7.58,'11111222,11111222,11111222' 
TABS,ioos:station:wmo:42043:1,2009-10-04T02:30:00Z,28.9818,-94.9186,4.0,6.934298811,156.7257285,9.69,'11111222,11111222,11111222' 
TABS,ioos:station:wmo:42043:1,2009-10-04T03:00:00Z,28.9818,-94.9186,4.0,6.249327964,173.5689114,7.98,'11111222,11111222,11111222' 
TABS,ioos:station:wmo:42043:1,2009-10-04T03:30:00Z,28.9818,-94.9186,4.0,6.413298683,162.017332,8.43,'11111222,11111222,11111222' 
TABS,ioos:station:wmo:42043:1,2009-10-04T04:00:00Z,28.9818,-94.9186,4.0,5.957088215,153.9083729,7.75,'11111222,11111222,11111222' 
TABS,ioos:station:wmo:42043:1,2009-10-04T04:30:00Z,28.9818,-94.9186,4.0,7.144004479,155.8749137,9.35,'11111222,11111222,11111222' 
TABS,ioos:station:wmo:42043:1,2009-10-04T05:00:00Z,28.9818,-94.9186,4.0,6.89231456,151.204052,8.86,'11111222,11111222,11111222' 
TABS,ioos:station:wmo:42043:1,2009-10-04T05:30:00Z,28.9818,-94.9186,4.0,7.017805925,148.7564912,8.85,'11111222,11111222,11111222' 
TABS,ioos:station:wmo:42043:1,2009-10-04T06:00:00Z,28.9818,-94.9186,4.0,6.335929293,164.9989271,8.43,'11111222,11111222,11111222' 
TABS,ioos:station:wmo:42043:1,2009-10-04T06:30:00Z,28.9818,-94.9186,4.0,6.10774099,158.6866109,7.89,'11111222,11111222,11111222' 
TABS,ioos:station:wmo:42043:1,2009-10-04T07:00:00Z,28.9818,-94.9186,4.0,6.378440248,151.0241973,8.11,'11111222,11111222,11111222' 
TABS,ioos:station:wmo:42043:1,2009-10-04T07:30:00Z,28.9818,-94.9186,4.0,6.653795909,160.9662276,9.18,'11111222,11111222,11111222' 
TABS,ioos:station:wmo:42043:1,2009-10-04T08:00:00Z,28.9818,-94.9186,4.0,7.580303424,172.1908084,9.71,'11111222,11111222,11111222' 
TABS,ioos:station:wmo:42043:1,2009-10-04T08:30:00Z,28.9818,-94.9186,4.0,8.244737716,170.857803,10.52,'11111222,11111222,11111222' 
TABS,ioos:station:wmo:42043:1,2009-10-04T09:00:00Z,28.9818,-94.9186,4.0,8.330726259,179.2436493,10.87,'11111222,11111222,11111222' 
TABS,ioos:station:wmo:42043:1,2009-10-04T09:30:00Z,28.9818,-94.9186,4.0,7.788157677,172.9938351,9.76,'11111222,11111222,11111222' 
TABS,ioos:station:wmo:42043:1,2009-10-04T10:00:00Z,28.9818,-94.9186,4.0,7.096379359,173.4460452,8.91,'11111222,11111222,11111222' 
TABS,ioos:station:wmo:42043:1,2009-10-04T10:30:00Z,28.9818,-94.9186,4.0,10.41299189,182.862609,13.06,'11111222,11111222,11111222' 
TABS,ioos:station:wmo:42043:1,2009-10-04T11:00:00Z,28.9818,-94.9186,4.0,8.420213774,179.5919349,11.67,'11111222,11111222,11111222' 
TABS,ioos:station:wmo:42043:1,2009-10-04T11:30:00Z,28.9818,-94.9186,4.0,8.750634263,186.1668524,12.06,'11111222,11111222,11111222' 
TABS,ioos:station:wmo:42043:1,2009-10-04T12:00:00Z,28.9818,-94.9186,4.0,9.117653207,189.2145684,11.89,'11111222,11111222,11111222' 
TABS,ioos:station:wmo:42043:1,2009-10-04T12:30:00Z,28.9818,-94.9186,4.0,8.035570919,176.4327799,10.2,'11111222,11111222,11111222' 
TABS,ioos:station:wmo:42043:1,2009-10-04T13:00:00Z,28.9818,-94.9186,4.0,9.127814634,169.3304526,11.82,'11111222,11111222,11111222' 
TABS,ioos:station:wmo:42043:1,2009-10-04T13:30:00Z,28.9818,-94.9186,4.0,7.923591357,173.9874337,10.4,'11111222,11111222,11111222' 
TABS,ioos:station:wmo:42043:1,2009-10-04T14:00:00Z,28.9818,-94.9186,4.0,8.509670969,175.2142141,11.43,'11111222,11111222,11111222' 
TABS,ioos:station:wmo:42043:1,2009-10-04T14:30:00Z,28.9818,-94.9186,4.0,7.645501946,177.8264194,9.83,'11111222,11111222,11111222' 
TABS,ioos:station:wmo:42043:1,2009-10-04T15:00:00Z,28.9818,-94.9186,4.0,8.002255932,178.6396946,12.28,'11111222,11111222,11111222' 
TABS,ioos:station:wmo:42043:1,2009-10-04T15:30:00Z,28.9818,-94.9186,4.0,8.39764848,199.6218619,11.17,'11111222,11111222,11111222' 
TABS,ioos:station:wmo:42043:1,2009-10-04T16:00:00Z,28.9818,-94.9186,4.0,4.870831551,215.8112906,6.14,'11111222,11111222,11111222' 
TABS,ioos:station:wmo:42043:1,2009-10-04T16:30:00Z,28.9818,-94.9186,4.0,5.128313563,192.8440633,6.7,'11111222,11111222,11111222' 
TABS,ioos:station:wmo:42043:1,2009-10-04T17:00:00Z,28.9818,-94.9186,4.0,4.940647731,215.9422383,6.89,'11111222,11111222,11111222' 
TABS,ioos:station:wmo:42043:1,2009-10-04T17:30:00Z,28.9818,-94.9186,4.0,4.522057054,221.0549282,6.61,'11111222,11111222,11111222' 
TABS,ioos:station:wmo:42043:1,2009-10-04T18:00:00Z,28.9818,-94.9186,4.0,3.380946613,255.9637894,5.52,'11111222,11111222,11111222' 
TABS,ioos:station:wmo:42043:1,2009-10-04T18:30:00Z,28.9818,-94.9186,4.0,3.476736976,239.969019,5.74,'11111222,11111222,11111222' 
TABS,ioos:station:wmo:42043:1,2009-10-04T19:00:00Z,28.9818,-94.9186,4.0,7.228969498,198.3849888,9.6,'11111222,11111222,11111222' 
TABS,ioos:station:wmo:42043:1,2009-10-04T19:30:00Z,28.9818,-94.9186,4.0,5.714280357,187.1376468,7.66,'11111222,11111222,11111222' 